Weather History for FBMN - March, 2013

Change the Weather History Date:

Friday, March 15, 2013

  Actual Average Record
Temperature  
Mean Temperature 77 °F -  
Max Temperature 91 °F 86 °F 98 °F (2003)
Min Temperature 63 °F 64 °F 62 °F (2001)
Cooling Degree Days 12    
Growing Degree Days 27 (Base 50)    
Moisture  
Dew Point 54 °F    
Average Humidity 42    
Maximum Humidity 60    
Minimum Humidity 20    
Precipitation  
Precipitation 0.00 in - - ()
Sea Level Pressure  
Sea Level Pressure 30.04 in    
Wind  
Wind Speed 8 mph ()    
Max Wind Speed 16 mph    
Max Gust Speed -    
Visibility 6.0 miles    
Events      
Averages and records for this station are not official NWS values.
T = Trace of Precipitation, MM = Missing Value Source: Averaged Metar Reports

Daily Weather History Graph

Daily Weather History Graph

Search for Another Location

Airport or City:

Trip Planner

Search our weather history database for the weather conditions in past years. The results will help you decide how hot, cold, wet, or windy it might be!

Date:

Astronomy

Mar. 15, 2013 Rise Set
Actual Time 6:28 AM CAT 6:41 PM CAT
Civil Twilight 6:06 AM CAT 7:03 PM CAT
Nautical Twilight 5:40 AM CAT 7:29 PM CAT
Astronomical Twilight 5:15 AM CAT 7:54 PM CAT
Moon 9:30 AM CAT (3/15) 9:06 PM CAT (3/15)
Length of Visible Light 12h 56m
Length of Day
12h 12m
Waxing Crescent, 13% of the Moon is Illuminated
Mar 15
Waxing Crescent
Mar 19
First Quarter
Mar 27
Full
Apr 3
Last Quarter
Apr 10
New

Hourly Weather History & Observations

Time (CAT) Temp. Heat Index Dew Point Humidity Pressure Visibility Wind Dir Wind Speed Gust Speed Precip Events Conditions
12:00 AM 75.2 °F - 55.4 °F 50% 30.06 in - East 11.5 mph - N/A   Clear
1:00 AM 75.2 °F - 55.4 °F 50% 30.06 in - East 11.5 mph - N/A   Clear
2:00 AM 72 °F - 55 °F 44%  in 6 mi East 11.5 mph - -   Partly Cloudy
2:00 AM 71.6 °F - 55.4 °F 57% 30.06 in - East 11.5 mph - N/A   Clear
3:00 AM 69.8 °F - 50.0 °F 49% 30.06 in - East 9.2 mph - N/A   Clear
4:00 AM 68.0 °F - 53.6 °F 60% 30.06 in - East 8.1 mph - N/A   Clear
5:00 AM 68.0 °F - 51.8 °F 56% 30.06 in - ENE 9.2 mph - N/A   Clear
7:00 AM 66.2 °F - 51.8 °F 60% 30.09 in - East 10.4 mph - N/A   Clear
8:00 AM 70 °F - 51 °F 41%  in 6 mi East 15.0 mph - -  
8:00 AM 69.8 °F - 51.8 °F 53% 30.12 in - East 15.0 mph - N/A   Clear
9:00 AM 73.4 °F - 51.8 °F 47% 30.12 in - East 16.1 mph - N/A   Clear
10:00 AM 78.8 °F - 51.8 °F 39% 30.12 in - East 11.5 mph - N/A   Clear
11:00 AM 82.4 °F 81.4 °F 53.6 °F 37% 30.09 in - ENE 10.4 mph - N/A   Clear
12:00 PM 84.2 °F 83.0 °F 55.4 °F 37% 30.06 in - East 5.8 mph - N/A   Clear
1:00 PM 87.8 °F 86.1 °F 55.4 °F 33% 30.04 in - Calm Calm - N/A   Clear
2:00 PM 88 °F - 53 °F 20%  in 6 mi SE 5.8 mph - -  
2:00 PM 87.8 °F 85.7 °F 53.6 °F 31% 30.01 in - SE 5.8 mph - N/A   Clear
3:00 PM 89.6 °F 87.3 °F 53.6 °F 29% 29.98 in - NE 6.9 mph - N/A   Clear
4:00 PM 89.6 °F 87.3 °F 53.6 °F 29% 29.95 in - NW 5.8 mph - N/A   Clear
5:00 PM 91.4 °F 89.4 °F 55.4 °F 29% 29.95 in - NW 6.9 mph - N/A   Clear
6:00 PM 89.6 °F 87.7 °F 55.4 °F 31% 29.95 in - NW 4.6 mph - N/A   Clear
7:00 PM 86.0 °F 84.9 °F 57.2 °F 37% 29.98 in - Variable 2.3 mph - N/A   Clear
8:00 PM 80.6 °F 80.8 °F 57.2 °F 45% 29.98 in - West 3.5 mph - N/A   Clear
11:00 PM 75.2 °F - 55.4 °F 50% 30.04 in - SE 4.6 mph - N/A   Clear